Regional Weather Roundup
Issued by NWS Green Bay, WI

Home | Current Version | Previous Version | Text Only | Print | Product List | Glossary On
Versions: 1 2 3 4 5 6 7 8 9 10 11 12 13 14 15 16 17 18 19 20 21 22 23 24 25 26 27 28 29 30 31 32 33 34 35 36 37 38 39 40 41 42 43 44 45 46 47 48 49 50
000
ASUS43 KGRB 031259
RWRGRB

NORTH-CENTRAL AND NORTHEAST WISCONSIN REGIONAL WEATHER ROUNDUP
NATIONAL WEATHER SERVICE GREEN BAY WI
700 AM CST TUE MAR 03 2015

WIZ005-009-010>012-018-019-031400-
NORTH CENTRAL WISCONSIN

CITY           SKY/WX    TMP DP  RH WIND       PRES   REMARKS
IRONWOOD       CLOUDY    19  16  86 S6        29.72F
MANITOWISH WTR NOT AVBL
ARBOR VITAE    NOT AVBL
EAGLE RIVER    NOT AVBL
LAND O LAKES   NOT AVBL
RHINELANDER    CLOUDY    18  13  80 SE6       29.75F WCI  10
PHILLIPS       NOT AVBL
ANTIGO         NOT AVBL
TOMAHAWK       NOT AVBL
MERRILL        NOT AVBL
$$

WIZ013-073-031400-
NORTHEAST WISCONSIN

CITY           SKY/WX    TMP DP  RH WIND       PRES   REMARKS
IRON MOUNTAIN  CLOUDY    19  15  84 SE7       29.82F WCI  10
MARINETTE      CLOUDY    23  18  80 S3        29.87F
$$

WIZ017-030-035>037-045-031400-
CENTRAL WISCONSIN

CITY           SKY/WX    TMP DP  RH WIND       PRES   REMARKS
MEDFORD        NOT AVBL
WAUSAU         CLOUDY    20  14  77 SE9       29.77F WCI   9
MOSINEE        CLOUDY    19  18  93 SE8       29.79F WCI   9
MARSHFIELD     CLOUDY    22  14  71 SE9       29.76F
WISC RAPIDS    CLOUDY    22  13  68 SE12      29.79F
STEVENS POINT  NOT AVBL
WAUPACA        NOT AVBL
SHAWANO        NOT AVBL
CLINTONVILLE   NOT AVBL
$$

WIZ038-039-048-051-031400-
FOX VALLEY

CITY           SKY/WX    TMP DP  RH WIND       PRES   REMARKS
NWS GREEN BAY  CLOUDY    26  20  77 S10       29.86F HAZE
APPLETON       LGT SNOW  25  16  68 SE13      29.84F
OSHKOSH        LGT SNOW  24  19  81 SE13      29.83F
FOND DU LAC    LGT SNOW  24  19  81 S15       29.83F
$$

WIZ022-050-052-031400-
EAST CENTRAL WISCONSIN

CITY           SKY/WX    TMP DP  RH WIND       PRES   REMARKS
STURGEON BAY   CLOUDY    28  19  69 S13G21    29.89F
MANITOWOC      LGT SNOW  28  26  92 S21G28    29.89F FOG
SHEBOYGAN      LGT SNOW  26  23  88 S13G21    29.87F VSB 3/4
$$

LMZ563-521-522-541>543-031400-
LAKESHORE

STATION/POSITION TIME  TEMP    WIND        PRES    VSBY  WAVE
                       AIR SEA DIR/SP/G                  HT/PER
                 (UTC) (F)     (DEG/KT/KT) (MB)    (MI)  (FT/S)
SHEBOYGAN LKSHOR 1200   29     180/ 25/ 28 1015.0F
KEWAUNEE LKSHORE 1200   30                 1012.4F
NORTHPORT PIER   1200   25     150/  3/  6 1013.2F
SISTER BAY LKSHO 1200   24        CALM       N/A
CHAMBERS ISLAND  1200   22     170/  3/  8 1014.6F
MENOMINEE LKSHOR 1200   22                 1013.3F
$$



USA.gov is the U.S. government's official web portal to all federal, state and local government web resources and services.